"Pseudo-MPEC" for P11gNGj

Created 2021 Jun 14 13:07:22 UT using Find_Orb

Click here for an explanation of pseudo-MPECs

 
 Astrometry: 
     P11gNGj  C2021 06 07L=_KAHjMAstrometry3JCi`:Bredacted;B3U;[hxrd-?clickmsF51
     P11gNGj  C2021 06 07ke2,4`3Ha]k*w+shere#:NuqpforGQZTqN'm93SNsfv4#gs!LytOF51
     P11gNGj  C2021 06 079#Hit6KyEv'L9t@L'nymDhpeaq7`explanationFfTI4wC-3H,2yF51

Station data:
(F51) Pan-STARRS 1, Haleakala  (N20.707235 W156.255910)  US/Hawaii.
   Observers N. Primak, A. Schultz, S. Watters, J. Thiel, T. Goggia. Measurer
   PS1 Science Consortium. 1.8-m Ritchey-Chrétien + CCD.

Orbital elements:  P11gNGj
   Perihelion 2021 Jun 19.318779 +/- 31.6978 TT =  7:39:02 (JD 2459384.818779)
Epoch 2021 Jun  7.0 TT = JDT 2459372.5   Earth MOID: 0.0042   AutoNEOCP
M 349.64933834 +/- 24.612068        (J2000 ecliptic)
n   0.84023438 +/- 0.435174         Peri.  189.12824 +/- 68.119781
a   1.11225000 +/- 0.384031         Node    79.18770 +/- 66.311418
e   0.0840432 +/- 0.252445          Incl.    2.24029 +/- 6.5823703
P   1.17/428.44d           H 30.8   G  0.15   U 12.2  SR
q 1.01877294 +/- 0.260244    Q 1.20572707 +/- 35.3259
From 3 observations 2021 June 7 (48.3 min); mean residual 0".15
Residuals in arcseconds: 
210607 F51  .07-  .18+    210607 F51  .11+  .27-    210607 F51  .04-  .09+    

Ephemerides (geocentric):
Date (UTC) HH   RA              Dec         delta   r     elong  mag " sig PA
---- -- -- --  -------------   -----------  ------ ------ -----  --- ---- ---
2021 06 14 13  22 16 01.439   -54 44 26.42  698958 1.0181 119.6 21.3  31d   1
2021 06 14 14  22 19 22.304   -54 39 43.49  702614 1.0180 119.1 21.3  32d   1
2021 06 14 15  22 22 40.267   -54 34 43.08  706310 1.0180 118.7 21.4  32d   1
2021 06 14 16  22 25 55.316   -54 29 25.97  710046 1.0180 118.2 21.4  32d   1
2021 06 14 17  22 29 07.443   -54 23 52.92  713821 1.0180 117.8 21.4  32d   1
2021 06 14 18  22 32 16.645   -54 18 04.68  717635 1.0180 117.3 21.4  32d   1
2021 06 14 19  22 35 22.922   -54 12 01.96  721486 1.0180 116.9 21.5  32d   1
2021 06 14 20  22 38 26.279   -54 05 45.49  725375 1.0179 116.5 21.5  32d   1
2021 06 14 21  22 41 26.726   -53 59 15.95  729300 1.0179 116.1 21.5  32d   1
2021 06 14 22  22 44 24.274   -53 52 34.03  733261 1.0179 115.7 21.5  33d   1
2021 06 14 23  22 47 18.939   -53 45 40.38  737257 1.0179 115.2 21.6  33d   1
2021 06 15 00  22 50 10.739   -53 38 35.64  741288 1.0179 114.8 21.6  33d   1
2021 06 15 01  22 52 59.696   -53 31 20.44  745352 1.0179 114.4 21.6  33d   1
2021 06 15 02  22 55 45.834   -53 23 55.39  749450 1.0178 114.0 21.6  33d   1
2021 06 15 03  22 58 29.179   -53 16 21.07  753580 1.0178 113.6 21.7  33d   1
2021 06 15 04  23 01 09.759   -53 08 38.04  757743 1.0178 113.3 21.7  33d   1
2021 06 15 05  23 03 47.605   -53 00 46.86  761937 1.0178 112.9 21.7  34d   1
2021 06 15 06  23 06 22.747   -52 52 48.06  766162 1.0178 112.5 21.7  34d   1
2021 06 15 07  23 08 55.221   -52 44 42.15  770418 1.0178 112.1 21.8  34d   1
2021 06 15 08  23 11 25.060   -52 36 29.62  774703 1.0177 111.8 21.8  34d   1
2021 06 15 09  23 13 52.300   -52 28 10.95  779018 1.0177 111.4 21.8  34d   1
2021 06 15 10  23 16 16.979   -52 19 46.59  783361 1.0177 111.0 21.8  34d   1
2021 06 15 11  23 18 39.134   -52 11 17.00  787732 1.0177 110.7 21.8  34d   1
2021 06 15 12  23 20 58.803   -52 02 42.58  792131 1.0177 110.3 21.9  35d   1
2021 06 15 13  23 23 16.025   -51 54 03.76  796558 1.0177 110.0 21.9  35d   1
2021 06 15 14  23 25 30.840   -51 45 20.91  801011 1.0176 109.6 21.9  35d   1
2021 06 15 15  23 27 43.289   -51 36 34.42  805490 1.0176 109.3 21.9  35d   1
2021 06 15 16  23 29 53.410   -51 27 44.64  809994 1.0176 109.0 22.0  35d   1
2021 06 15 17  23 32 01.245   -51 18 51.92  814524 1.0176 108.6 22.0  35d   1
2021 06 15 18  23 34 06.833   -51 09 56.58  819079 1.0176 108.3 22.0  35d   1
2021 06 15 19  23 36 10.214   -51 00 58.94  823657 1.0176 108.0 22.0  36d   1
2021 06 15 20  23 38 11.430   -50 51 59.31  828260 1.0175 107.7 22.1  36d   1
2021 06 15 21  23 40 10.520   -50 42 57.96  832886 1.0175 107.3 22.1  36d   1
2021 06 15 22  23 42 07.524   -50 33 55.18  837535 1.0175 107.0 22.1  36d   1
2021 06 15 23  23 44 02.482   -50 24 51.22  842206 1.0175 106.7 22.1  36d   1
2021 06 16 00  23 45 55.433   -50 15 46.34  846899 1.0175 106.4 22.1  36d   1
2021 06 16 01  23 47 46.415   -50 06 40.76  851614 1.0175 106.1 22.2  36d   1
2021 06 16 02  23 49 35.468   -49 57 34.73  856350 1.0174 105.8 22.2  37d   1
2021 06 16 03  23 51 22.628   -49 48 28.45  861107 1.0174 105.5 22.2  37d   1
2021 06 16 04  23 53 07.935   -49 39 22.12  865885 1.0174 105.2 22.2  37d   1
2021 06 16 05  23 54 51.425   -49 30 15.95  870682 1.0174 105.0 22.2  37d   1
2021 06 16 06  23 56 33.135   -49 21 10.11  875499 1.0174 104.7 22.3  37d   1
2021 06 16 07  23 58 13.100   -49 12 04.79  880336 1.0174 104.4 22.3  37d   1
2021 06 16 08  23 59 51.356   -49 03 00.14  885191 1.0174 104.1 22.3  38d   1
2021 06 16 09  00 01 27.939   -48 53 56.33  890065 1.0173 103.8 22.3  38d   1
2021 06 16 10  00 03 02.882   -48 44 53.50  894957 1.0173 103.6 22.4  38d   1
2021 06 16 11  00 04 36.219   -48 35 51.79  899867 1.0173 103.3 22.4  38d   1
2021 06 16 12  00 06 07.983   -48 26 51.35  904795 1.0173 103.0 22.4  38d   1